Back to catalog

THORAD DELTA 1 DEB

AliveSSO
NORAD 8308·DEBRIS·🇺🇸 United States

Launched Nov 15, 1974 from Vandenberg Space Force Base

Loading…

Next Passes (next 24 hours)

TLE

FreshSource: Space-Track

Epoch: Sep 14, 2026, 00:57 UTC

1 08308U 74089BR  26257.03969016 -.00000014  00000-0  19657-3 0  9990
2 08308 101.4870 291.1496 0061748 239.8002 147.1230 12.45592119356117

Track THORAD DELTA 1 DEB in real time with AllMySat

Download on the App Store